DECAYED

STARLINK-1764, 46343 (Decayed)

Orbit data source: Space-Track

STARLINK-1764, 46343 was a payload satellite owned by SpaceX/Seattle (US) in LEO that was launched on Thu, 03 Sep 2020 UTC via an FALCON 9 launch vehicle from the Air Force Eastern Test Range (AFETR). Payload-class satellites include a variety of spacecraft equipped with specific instruments for various scientific and technological missions. These include communications satellites like Starlink; space stations such as the ISS; scientific satellites like the Hubble; Earth observation satellites from companies like Planet Labs, Umbra, and HawkEye 360; GPS; miniature CubeSats for education and research; and military/defense satellites.

Not visible in the next 10 days
Identifier
46343, 2020-062U
Orbit
Decayed
Country
Flag of USUS
Related business
Manufacturer
SpaceX/Seattle
Mission
Decayed Commercial Communications
Bus & Motor
STARLINK, Unknown motor
Mass
260 kg wet, ~248 kg dry
Launch date (UTC)
2020-09-03 (6 years ago)
Launch vehicle
FALCON 9
Launch site
Air Force Eastern Test Range (AFETR)
Object type
Payload
Rocket body
Debris
Shape & HBR
Box + 1 Pan, 10.1 m
Radar Cross Section
13.562 m², Large (>1 m²)

Expand to show TLE details & history
Last TLE update: 6 days ago

TLE from 6 days ago
0 STARLINK-1764
1 46343U 20062U   26166.47765608  .09766342  12499-4  54350-3 0  9990
2 46343  53.0116 183.5712 0005818 323.2819  36.7829 16.42086581320646
Epoch: 2026-06-15T11:27Z
TLE epoch observation values (Epoch: 2026-06-15T11:27:49.485Z)
Latitude
0.00002°
Longitude
107.85155°
Altitude
158.138 km
Speed
7.814 km/s
True Right ascension
12h 14m 17s
True Declination
0° 00' 00"
Sunlit
Object was in daylight at epoch
Visualization orbit readout
Latitude
Unknown
Longitude
Unknown
Altitude
Unknown
Speed
Unknown
Apparent Right ascension
Unknown
Apparent Declination
Unknown
Sunlit
N/A
Visualization observer readout
Local Sidereal Time
14:49:42
Azimuth
Unknown
Elevation
Unknown
Doppler factor
Unknown
Orbital elements
Apogee altitude
164.356 km
Perigee altitude
156.747 km
Semi-major axis
6,538.688 km
Eccentricity
0.00058
Inclination
53.0116°
RAAN
183.5712°
Arg. of periapsis
323.2819°
True anomaly
36.82284°
Mean anomaly
36.7829°
Eccentric anomaly
36.80287°
Mean motion
4.10494 °/min
Orbital period
87.7 mins
BSTAR
0.0005435
Loading maneuver chart data...
Computing Atmospheric mass density...

Documentation

Showing up to 5 results
|